Flag for United Kingdom Weather past 2 weeks in Luton, England, United Kingdom

Now
59 °F

Mostly cloudy.


Feels Like: 57 °F
Forecast: 61 / 77 °F
Wind: 13 mph from Northeast

Location: Luton Airport

Current Time: Jul 23, 2014 at 5:46:16 AM

Latest Report: Jul 23, 2014 at 5:20 AM


Visibility: 5 mi

Pressure: 30.18 "Hg

Humidity: 94%

Dew point: 57 °F

Location of LutonLocation

Historic Weather in Luton — Graph

°F

Luton temperature yesterday

Maximum temperature yesterday: 75 °F (at 1:20 PM)
Minimum temperature yesterday: 57 °F (at 3:20 AM)
Average temperature yesterday: 65 °F

Past Weeks' High & Low Weather Summary

 TemperatureHumidityPressure
High86 °F (Jul 18, 3:20 PM)100% (Jul 8, 11:50 PM)30.24 "Hg (Jul 8, 11:50 PM)
Low50 °F (Jul 8, 4:50 AM)33% (Jul 18, 3:20 PM)29.74 "Hg (Jul 13, 5:50 AM)
Average65 °F76%29.99 "Hg
* Reported Jul 8 4:20 AM — Jul 23 4:20 AM, Luton, Weather by CustomWeather, © 2014

Note: Actual official high and low records may vary slightly from our data, if they occured in-between our weather recording intervals... More about our weather records

Advertising

Luton weather history for previous 24 hours

 ConditionsComfort  
Time TempWeatherWind HumidityBarometerVisibility
4:20 AM
Jul 23
59 °FLow clouds.10 mph94%30.18 "Hg4 mi
3:50 AM59 °FLow clouds.12 mph94%30.21 "Hg4 mi
3:20 AM59 °FPassing clouds.10 mph94%30.21 "Hg4 mi
2:50 AM59 °FLow clouds.9 mph94%30.21 "Hg4 mi
2:20 AM59 °FLow clouds.10 mph94%30.21 "Hg4 mi
1:50 AM59 °FLow clouds.10 mph94%30.21 "Hg4 mi
1:20 AM59 °FLow clouds.10 mph94%30.21 "Hg5 mi
12:50 AM59 °FLow clouds.10 mph100%30.24 "Hg5 mi
5:50 PM
Jul 22
73 °FSunny.12 mph65%30.18 "Hg10 mi
5:20 PM73 °FSunny.13 mph65%30.18 "Hg10 mi
4:50 PM75 °FClear.13 mph57%30.21 "HgN/A
4:20 PM75 °FPassing clouds.13 mph57%30.21 "HgN/A
3:50 PM75 °FPassing clouds.13 mph57%30.21 "HgN/A
3:20 PM75 °FScattered clouds.15 mph57%30.21 "HgN/A
2:50 PM75 °FScattered clouds.13 mph54%30.21 "HgN/A
2:20 PM75 °FPassing clouds.14 mph54%30.21 "HgN/A
1:50 PM75 °FPassing clouds.13 mph57%30.21 "HgN/A
1:20 PM75 °FPassing clouds.13 mph57%30.21 "HgN/A
12:50 PM73 °FPassing clouds.14 mph61%30.21 "HgN/A
12:20 PM73 °FPassing clouds.13 mph61%30.21 "HgN/A
11:50 AM70 °FPassing clouds.13 mph69%30.21 "HgN/A
11:20 AM68 °FPassing clouds.13 mph73%30.21 "HgN/A
10:50 AM66 °FPassing clouds.10 mph78%30.21 "HgN/A
10:20 AM64 °FScattered clouds.9 mph83%30.24 "HgN/A
9:50 AM63 °FPartly sunny.10 mph83%30.24 "Hg6 mi
9:20 AM61 °FPartly sunny.10 mph88%30.24 "Hg5 mi
8:50 AM59 °FPartly sunny.10 mph94%30.21 "Hg4 mi
8:20 AM59 °FFog.10 mph94%30.21 "Hg3 mi
7:50 AM57 °FFog.10 mph100%30.21 "Hg3 mi
7:20 AM57 °FFog.7 mph100%30.21 "Hg1 mi
6:50 AM57 °FFog.7 mph100%30.21 "Hg1 mi
6:20 AM57 °FFog.7 mph100%30.21 "Hg1 mi
5:50 AM57 °FFog.8 mph100%30.21 "Hg0 mi
5:20 AM57 °FFog.7 mph100%30.21 "Hg0 mi
Weather by CustomWeather, © 2014

See weather overviewHow to use our weather pages